This demonstration page uses our WeatherBlox Daily Observations layout. Learn more.

Left ArrowRight Arrow

41.55636, -103.73856

Hourly Observations for June 1, 2019

Temp ( °F °C ) Dew Point ( °F °C ) Humidity (%) Winds ( mph kmh ) Pressure ( in mb ) Visibility ( mi km ) Precip ( " mm )
6:58 pm 18:58 undefined 64 17.7 44 6.6 48 48 WSW 9 15 29.96 1015 10 16 0.00 0.00
7:58 pm 19:58 undefined 60 15.8 44 6.9 56 56 WSW 16 26 29.97 1015 10 16 0.00 0.00
8:58 pm 20:58 undefined 57 13.9 46 7.8 67 67 NW 7 11 29.99 1016 10 16 0.00 0.00
9:58 pm 21:58 undefined 54 12.1 48 8.8 80 80 NW 7 11 30.03 1017 10 16 0.00 0.00
10:58 pm 22:58 undefined 55 12.5 49 9.3 81 81 WNW 3 6 30.02 1017 10 16 0.00 0.00
11:58 pm 23:58 undefined 56 13.4 45 7.3 67 67 NNW 13 20 30.02 1017 10 16 0.00 0.00
12:58 am 00:58 undefined 55 12.7 45 7.1 69 69 NNE 7 11 30.00 1016 10 16 0.00 0.00
1:58 am 01:58 undefined 49 9.7 44 6.4 80 80 WNW 6 9 30.01 1016 10 16 0.00 0.00
2:58 am 02:58 undefined 46 7.8 43 6.2 90 90 W 6 9 30.02 1017 10 16 0.00 0.00
3:58 am 03:58 undefined 46 8 42 5.8 86 86 WNW 7 11 30.02 1017 10 16 0.00 0.00
4:58 am 04:58 undefined 44 6.8 41 5 88 88 NNW 5 7 30.02 1017 10 16 0.00 0.00
5:58 am 05:58 undefined 46 7.7 42 5.8 88 88 W 6 9 30.03 1017 10 16 0.00 0.00
6:58 am 06:58 undefined 51 10.6 47 8.2 85 85 Calm 30.04 1017 10 16 0.00 0.00
7:58 am 07:58 undefined 57 14 47 8.3 69 69 Calm 30.04 1017 10 16 0.00 0.00
8:58 am 08:58 undefined 59 15 49 9.5 70 70 Calm 30.07 1018 10 16 0.00 0.00
9:58 am 09:58 undefined 61 16.2 48 8.9 62 62 SSW 3 6 30.06 1018 10 16 0.00 0.00
10:58 am 10:58 undefined 63 17.2 46 7.8 54 54 S 6 9 30.04 1017 10 16 0.00 0.00
11:58 am 11:58 undefined 66 18.7 45 7.1 47 47 SSW 5 7 30.02 1017 10 16 0.00 0.00
12:58 pm 12:58 undefined 67 19.6 43 6 41 41 SE 5 7 30.01 1016 10 16 0.00 0.00
1:58 pm 13:58 undefined 69 20.7 44 6.7 40 40 S 8 13 30.00 1016 10 16 0.00 0.00
2:58 pm 14:58 undefined 69 20.7 46 7.6 43 43 S 5 7 30.01 1016 10 16 0.00 0.00
3:58 pm 15:58 undefined 69 20.7 45 7 41 41 SE 9 15 29.96 1015 10 16 0.00 0.00
4:58 pm 16:58 undefined 68 19.9 48 8.9 49 49 S 9 15 30.00 1016 10 16 0.00 0.00

Powered by AerisWeather